date,time,SUV Intensity [MED/Hr],UV Index,Daily total [MED],Since Last [MED]
25/05/2023,00:02:10,-0.000,0.0,0.0,0.0
25/05/2023,00:03:10,0.000,0.0,0.0,0.0
25/05/2023,00:04:10,-0.001,0.0,0.0,0.0
25/05/2023,00:05:10,-0.000,0.0,0.0,0.0
25/05/2023,00:06:10,-0.000,0.0,0.0,0.0
25/05/2023,00:07:10,-0.000,0.0,0.0,0.0
25/05/2023,00:08:10,-0.000,0.0,0.0,0.0
25/05/2023,00:09:10,0.000,0.0,0.0,0.0
25/05/2023,00:10:10,0.000,0.0,0.0,0.0
25/05/2023,00:11:10,-0.001,0.0,0.0,0.0
25/05/2023,00:12:10,0.001,0.0,0.0,0.0
25/05/2023,00:13:10,0.000,0.0,0.0,0.0
25/05/2023,00:14:10,0.000,0.0,0.0,0.0
25/05/2023,00:15:10,0.000,0.0,0.0,0.0
25/05/2023,00:16:10,0.000,0.0,0.0,0.0
25/05/2023,00:17:10,0.000,0.0,0.0,0.0
25/05/2023,00:18:10,0.000,0.0,0.0,0.0
25/05/2023,00:19:10,-0.001,0.0,0.0,0.0
25/05/2023,00:20:10,0.001,0.0,0.0,0.0
25/05/2023,00:21:10,0.000,0.0,0.0,0.0
25/05/2023,00:22:10,-0.001,0.0,0.0,0.0
25/05/2023,00:23:10,-0.000,0.0,0.0,0.0
25/05/2023,00:24:10,0.000,0.0,0.0,0.0
25/05/2023,00:25:10,-0.000,0.0,0.0,0.0
25/05/2023,00:26:10,-0.001,0.0,0.0,0.0
25/05/2023,00:27:10,0.001,0.0,0.0,0.0
25/05/2023,00:28:10,0.000,0.0,0.0,0.0
25/05/2023,00:29:10,0.001,0.0,0.0,0.0
25/05/2023,00:30:10,-0.000,0.0,0.0,0.0
25/05/2023,00:31:10,0.000,0.0,0.0,0.0
25/05/2023,00:32:10,-0.001,0.0,0.0,0.0
25/05/2023,00:33:10,0.000,0.0,0.0,0.0
25/05/2023,00:34:10,-0.000,0.0,0.0,0.0
25/05/2023,00:35:10,0.000,0.0,0.0,0.0
25/05/2023,00:36:10,0.000,0.0,0.0,0.0
25/05/2023,00:37:11,-0.001,0.0,0.0,0.0
25/05/2023,00:38:10,0.000,0.0,0.0,0.0
25/05/2023,00:39:10,0.000,0.0,0.0,0.0
25/05/2023,00:40:10,0.001,0.0,0.0,0.0
25/05/2023,00:41:10,0.001,0.0,0.0,0.0
25/05/2023,00:42:10,-0.000,0.0,0.0,0.0
25/05/2023,00:43:10,-0.000,0.0,0.0,0.0
25/05/2023,00:44:10,0.001,0.0,0.0,0.0
25/05/2023,00:45:10,0.000,0.0,0.0,0.0
25/05/2023,00:46:10,0.001,0.0,0.0,0.0
25/05/2023,00:47:10,0.000,0.0,0.0,0.0
25/05/2023,00:48:10,0.000,0.0,0.0,0.0
25/05/2023,00:49:10,0.000,0.0,0.0,0.0
25/05/2023,00:50:10,0.000,0.0,0.0,0.0
25/05/2023,00:51:10,0.000,0.0,0.0,0.0
25/05/2023,00:52:10,0.000,0.0,0.0,0.0
25/05/2023,00:53:10,0.000,0.0,0.0,0.0
25/05/2023,00:54:10,0.000,0.0,0.0,0.0
25/05/2023,00:55:10,0.000,0.0,0.0,0.0
25/05/2023,00:56:10,0.000,0.0,0.0,0.0
25/05/2023,00:57:10,0.000,0.0,0.0,0.0
25/05/2023,00:58:10,-0.001,0.0,0.0,0.0
25/05/2023,00:59:11,0.000,0.0,0.0,0.0
25/05/2023,01:00:10,0.000,0.0,0.0,0.0
25/05/2023,01:01:10,0.000,0.0,0.0,0.0
25/05/2023,01:02:10,0.001,0.0,0.0,0.0
25/05/2023,01:03:10,0.002,0.0,0.0,0.0
25/05/2023,01:04:10,0.001,0.0,0.0,0.0
25/05/2023,01:05:11,-0.000,0.0,0.0,0.0
25/05/2023,01:06:11,0.000,0.0,0.0,0.0
25/05/2023,01:07:10,0.001,0.0,0.0,0.0
25/05/2023,01:08:11,0.001,0.0,0.0,0.0
25/05/2023,01:09:11,0.000,0.0,0.0,0.0
25/05/2023,01:10:10,0.000,0.0,0.0,0.0
25/05/2023,01:11:10,-0.000,0.0,0.0,0.0
25/05/2023,01:12:10,0.001,0.0,0.0,0.0
25/05/2023,01:13:10,0.000,0.0,0.0,0.0
25/05/2023,01:14:10,0.000,0.0,0.0,0.0
25/05/2023,01:15:11,0.000,0.0,0.0,0.0
25/05/2023,01:16:10,0.000,0.0,0.0,0.0
25/05/2023,01:17:10,0.000,0.0,0.0,0.0
25/05/2023,01:18:10,0.000,0.0,0.0,0.0
25/05/2023,01:19:10,-0.001,0.0,0.0,0.0
25/05/2023,01:20:10,0.000,0.0,0.0,0.0
25/05/2023,01:21:10,0.000,0.0,0.0,0.0
25/05/2023,01:22:10,0.001,0.0,0.0,0.0
25/05/2023,01:23:10,0.000,0.0,0.0,0.0
25/05/2023,01:24:10,0.000,0.0,0.0,0.0
25/05/2023,01:25:10,0.000,0.0,0.0,0.0
25/05/2023,01:26:10,0.000,0.0,0.0,0.0
25/05/2023,01:27:10,0.000,0.0,0.0,0.0
25/05/2023,01:28:10,0.000,0.0,0.0,0.0
25/05/2023,01:29:10,-0.000,0.0,0.0,0.0
25/05/2023,01:30:10,0.001,0.0,0.0,0.0
25/05/2023,01:31:10,0.000,0.0,0.0,0.0
25/05/2023,01:32:10,0.000,0.0,0.0,0.0
25/05/2023,01:33:11,-0.001,0.0,0.0,0.0
25/05/2023,01:34:10,0.000,0.0,0.0,0.0
25/05/2023,01:35:10,-0.001,0.0,0.0,0.0
25/05/2023,01:36:10,0.001,0.0,0.0,0.0
25/05/2023,01:37:10,0.001,0.0,0.0,0.0
25/05/2023,01:38:10,0.000,0.0,0.0,0.0
25/05/2023,01:39:11,-0.001,0.0,0.0,0.0
25/05/2023,01:40:10,0.001,0.0,0.0,0.0
25/05/2023,01:41:10,-0.000,0.0,0.0,0.0
25/05/2023,01:42:10,0.001,0.0,0.0,0.0
25/05/2023,01:43:10,0.001,0.0,0.0,0.0
25/05/2023,01:44:10,0.000,0.0,0.0,0.0
25/05/2023,01:45:10,0.000,0.0,0.0,0.0
25/05/2023,01:46:10,0.000,0.0,0.0,0.0
25/05/2023,01:47:09,-0.000,0.0,0.0,0.0
25/05/2023,01:48:32,0.000,0.0,0.0,0.0
25/05/2023,01:50:11,0.000,0.0,0.0,0.0
25/05/2023,01:51:10,-0.000,0.0,0.0,0.0
25/05/2023,01:52:10,0.001,0.0,0.0,0.0
25/05/2023,01:53:10,0.000,0.0,0.0,0.0
25/05/2023,01:54:10,0.000,0.0,0.0,0.0
25/05/2023,01:55:10,0.001,0.0,0.0,0.0
25/05/2023,01:56:10,-0.000,0.0,0.0,0.0
25/05/2023,01:57:10,0.001,0.0,0.0,0.0
25/05/2023,01:58:11,0.000,0.0,0.0,0.0
25/05/2023,01:59:10,0.001,0.0,0.0,0.0
25/05/2023,02:00:10,0.002,0.0,0.0,0.0
25/05/2023,02:01:10,0.001,0.0,0.0,0.0
25/05/2023,02:02:11,0.000,0.0,0.0,0.0
25/05/2023,02:03:11,0.000,0.0,0.0,0.0
25/05/2023,02:04:10,0.000,0.0,0.0,0.0
25/05/2023,02:05:10,0.000,0.0,0.0,0.0
25/05/2023,02:06:10,0.000,0.0,0.0,0.0
25/05/2023,02:07:11,0.000,0.0,0.0,0.0
25/05/2023,02:08:11,0.001,0.0,0.0,0.0
25/05/2023,02:09:10,0.000,0.0,0.0,0.0
25/05/2023,02:10:10,0.001,0.0,0.0,0.0
25/05/2023,02:11:10,0.000,0.0,0.0,0.0
25/05/2023,02:12:10,0.000,0.0,0.0,0.0
25/05/2023,02:13:10,0.000,0.0,0.0,0.0
25/05/2023,02:14:10,0.001,0.0,0.0,0.0
25/05/2023,02:15:10,0.001,0.0,0.0,0.0
25/05/2023,02:16:10,0.001,0.0,0.0,0.0
25/05/2023,02:17:10,0.001,0.0,0.0,0.0
25/05/2023,02:18:10,0.001,0.0,0.0,0.0
25/05/2023,02:19:11,0.001,0.0,0.0,0.0
25/05/2023,02:20:08,0.000,0.0,0.0,0.0
25/05/2023,02:21:11,0.000,0.0,0.0,0.0
25/05/2023,02:22:11,0.001,0.0,0.0,0.0
25/05/2023,02:23:10,0.000,0.0,0.0,0.0
25/05/2023,02:24:10,0.000,0.0,0.0,0.0
25/05/2023,02:25:10,0.001,0.0,0.0,0.0
25/05/2023,02:26:10,0.001,0.0,0.0,0.0
25/05/2023,02:27:11,0.000,0.0,0.0,0.0
25/05/2023,02:28:11,0.000,0.0,0.0,0.0
25/05/2023,02:29:10,-0.001,0.0,0.0,0.0
25/05/2023,02:30:11,0.000,0.0,0.0,0.0
25/05/2023,02:31:11,-0.001,0.0,0.0,0.0
25/05/2023,02:32:10,0.000,0.0,0.0,0.0
25/05/2023,02:33:10,0.000,0.0,0.0,0.0
25/05/2023,02:34:11,0.000,0.0,0.0,0.0
25/05/2023,02:35:10,0.001,0.0,0.0,0.0
25/05/2023,02:36:11,0.000,0.0,0.0,0.0
25/05/2023,02:37:11,0.001,0.0,0.0,0.0
25/05/2023,02:38:11,0.001,0.0,0.0,0.0
25/05/2023,02:39:10,-0.000,0.0,0.0,0.0
25/05/2023,02:40:10,0.000,0.0,0.0,0.0
25/05/2023,02:41:10,0.000,0.0,0.0,0.0
25/05/2023,02:42:10,-0.000,0.0,0.0,0.0
25/05/2023,02:43:10,0.000,0.0,0.0,0.0
25/05/2023,02:44:11,-0.001,0.0,0.0,0.0
25/05/2023,02:45:11,0.000,0.0,0.0,0.0
25/05/2023,02:46:10,0.001,0.0,0.0,0.0
25/05/2023,02:47:10,-0.000,0.0,0.0,0.0
25/05/2023,02:48:10,0.000,0.0,0.0,0.0
25/05/2023,02:49:10,-0.000,0.0,0.0,0.0
25/05/2023,02:50:10,0.001,0.0,0.0,0.0
25/05/2023,02:51:11,0.001,0.0,0.0,0.0
25/05/2023,02:52:11,0.000,0.0,0.0,0.0
25/05/2023,02:53:11,0.000,0.0,0.0,0.0
25/05/2023,02:54:11,0.000,0.0,0.0,0.0
25/05/2023,02:55:11,0.001,0.0,0.0,0.0
25/05/2023,02:56:11,-0.001,0.0,0.0,0.0
25/05/2023,02:57:10,-0.000,0.0,0.0,0.0
25/05/2023,02:58:11,0.000,0.0,0.0,0.0
25/05/2023,02:59:11,0.000,0.0,0.0,0.0
25/05/2023,03:00:11,0.000,0.0,0.0,0.0
25/05/2023,03:01:10,-0.000,0.0,0.0,0.0
25/05/2023,03:02:11,0.000,0.0,0.0,0.0
25/05/2023,03:03:11,-0.001,0.0,0.0,0.0
25/05/2023,03:04:11,-0.000,0.0,0.0,0.0
25/05/2023,03:05:11,-0.000,0.0,0.0,0.0
25/05/2023,03:06:10,-0.000,0.0,0.0,0.0
25/05/2023,03:07:11,-0.000,0.0,0.0,0.0
25/05/2023,03:08:11,0.000,0.0,0.0,0.0
25/05/2023,03:09:09,0.001,0.0,0.0,0.0
25/05/2023,03:10:34,0.000,0.0,0.0,0.0
25/05/2023,03:12:11,-0.001,0.0,0.0,0.0
25/05/2023,03:13:10,-0.001,0.0,0.0,0.0
25/05/2023,03:14:10,-0.000,0.0,0.0,0.0
25/05/2023,03:15:11,-0.000,0.0,0.0,0.0
25/05/2023,03:16:10,0.001,0.0,0.0,0.0
25/05/2023,03:17:11,-0.000,0.0,0.0,0.0
25/05/2023,03:18:10,-0.000,0.0,0.0,0.0
25/05/2023,03:19:11,0.000,0.0,0.0,0.0
25/05/2023,03:20:11,-0.000,0.0,0.0,0.0
25/05/2023,03:21:10,-0.001,0.0,0.0,0.0
25/05/2023,03:22:10,-0.000,0.0,0.0,0.0
25/05/2023,03:23:10,-0.000,0.0,0.0,0.0
25/05/2023,03:24:11,-0.000,0.0,0.0,0.0
25/05/2023,03:25:11,-0.001,0.0,0.0,0.0
25/05/2023,03:26:11,0.000,0.0,0.0,0.0
25/05/2023,03:27:10,-0.000,0.0,0.0,0.0
25/05/2023,03:28:11,-0.000,0.0,0.0,0.0
25/05/2023,03:29:10,-0.001,0.0,0.0,0.0
25/05/2023,03:30:11,0.000,0.0,0.0,0.0
25/05/2023,03:31:10,-0.001,0.0,0.0,0.0
25/05/2023,03:32:11,-0.000,0.0,0.0,0.0
25/05/2023,03:33:10,0.001,0.0,0.0,0.0
25/05/2023,03:34:11,-0.000,0.0,0.0,0.0
25/05/2023,03:35:10,0.000,0.0,0.0,0.0
25/05/2023,03:36:10,-0.000,0.0,0.0,0.0
25/05/2023,03:37:11,-0.001,0.0,0.0,0.0
25/05/2023,03:38:10,0.000,0.0,0.0,0.0
25/05/2023,03:39:09,0.000,0.0,0.0,0.0
25/05/2023,03:40:33,0.000,0.0,0.0,0.0
25/05/2023,03:42:11,-0.000,0.0,0.0,0.0
25/05/2023,03:43:10,-0.001,0.0,0.0,0.0
25/05/2023,03:44:11,0.000,0.0,0.0,0.0
25/05/2023,03:45:11,0.001,0.0,0.0,0.0
25/05/2023,03:46:11,0.000,0.0,0.0,0.0
25/05/2023,03:47:10,0.000,0.0,0.0,0.0
25/05/2023,03:48:11,0.000,0.0,0.0,0.0
25/05/2023,03:49:11,0.000,0.0,0.0,0.0
25/05/2023,03:50:10,0.000,0.0,0.0,0.0
25/05/2023,03:51:10,-0.001,0.0,0.0,0.0
25/05/2023,03:52:11,0.000,0.0,0.0,0.0
25/05/2023,03:53:11,-0.000,0.0,0.0,0.0
25/05/2023,03:54:10,0.001,0.0,0.0,0.0
25/05/2023,03:55:10,0.000,0.0,0.0,0.0
25/05/2023,03:56:11,0.001,0.0,0.0,0.0
25/05/2023,03:57:10,0.000,0.0,0.0,0.0
25/05/2023,03:58:10,0.000,0.0,0.0,0.0
25/05/2023,03:59:11,0.002,0.0,0.0,0.0
25/05/2023,04:00:10,0.000,0.0,0.0,0.0
25/05/2023,04:01:10,0.000,0.0,0.0,0.0
25/05/2023,04:02:10,-0.000,0.0,0.0,0.0
25/05/2023,04:03:11,0.001,0.0,0.0,0.0
25/05/2023,04:04:11,0.001,0.0,0.0,0.0
25/05/2023,04:05:11,-0.000,0.0,0.0,0.0
25/05/2023,04:06:10,0.001,0.0,0.0,0.0
25/05/2023,04:07:10,0.001,0.0,0.0,0.0
25/05/2023,04:08:10,0.001,0.0,0.0,0.0
25/05/2023,04:09:11,0.001,0.0,0.0,0.0
25/05/2023,04:10:10,0.001,0.0,0.0,0.0
25/05/2023,04:11:11,0.001,0.0,0.0,0.0
25/05/2023,04:12:11,0.001,0.0,0.0,0.0
25/05/2023,04:13:11,0.002,0.0,0.0,0.0
25/05/2023,04:14:10,0.000,0.0,0.0,0.0
25/05/2023,04:15:10,0.002,0.0,0.0,0.0
25/05/2023,04:16:11,0.002,0.0,0.0,0.0
25/05/2023,04:17:11,0.002,0.0,0.0,0.0
25/05/2023,04:18:10,0.002,0.0,0.0,0.0
25/05/2023,04:19:11,0.002,0.0,0.0,0.0
25/05/2023,04:20:10,0.002,0.0,0.0,0.0
25/05/2023,04:21:11,0.002,0.0,0.0,0.0
25/05/2023,04:22:11,0.002,0.0,0.0,0.0
25/05/2023,04:23:11,0.002,0.0,0.0,0.0
25/05/2023,04:24:10,0.003,0.0,0.0,0.0
25/05/2023,04:25:10,0.004,0.0,0.0,0.0
25/05/2023,04:26:10,0.003,0.0,0.0,0.0
25/05/2023,04:27:10,0.003,0.0,0.0,0.0
25/05/2023,04:28:11,0.002,0.0,0.0,0.0
25/05/2023,04:29:11,0.004,0.0,0.0,0.0
25/05/2023,04:30:11,0.003,0.0,0.0,0.0
25/05/2023,04:31:11,0.005,0.0,0.0,0.0
25/05/2023,04:32:10,0.005,0.0,0.0,0.0
25/05/2023,04:33:10,0.005,0.0,0.0,0.0
25/05/2023,04:34:11,0.006,0.0,0.0,0.0
25/05/2023,04:35:11,0.003,0.0,0.0,0.0
25/05/2023,04:36:10,0.005,0.0,0.0,0.0
25/05/2023,04:37:11,0.005,0.0,0.0,0.0
25/05/2023,04:38:11,0.005,0.0,0.0,0.0
25/05/2023,04:39:10,0.005,0.0,0.0,0.0
25/05/2023,04:40:10,0.006,0.0,0.0,0.0
25/05/2023,04:41:10,0.006,0.0,0.0,0.0
25/05/2023,04:42:11,0.006,0.0,0.0,0.0
25/05/2023,04:43:11,0.007,0.0,0.0,0.0
25/05/2023,04:44:11,0.007,0.0,0.0,0.0
25/05/2023,04:45:10,0.008,0.0,0.001,0.001
25/05/2023,04:46:10,0.008,0.0,0.001,0.0
25/05/2023,04:47:10,0.007,0.0,0.001,0.0
25/05/2023,04:48:11,0.008,0.0,0.001,0.0
25/05/2023,04:49:11,0.007,0.0,0.001,0.0
25/05/2023,04:50:11,0.009,0.0,0.001,0.0
25/05/2023,04:51:11,0.009,0.0,0.001,0.0
25/05/2023,04:52:11,0.010,0.0,0.002,0.001
25/05/2023,04:53:11,0.010,0.0,0.002,0.0
25/05/2023,04:54:11,0.010,0.0,0.002,0.0
25/05/2023,04:55:10,0.011,0.0,0.002,0.0
25/05/2023,04:56:10,0.013,0.0,0.002,0.0
25/05/2023,04:57:10,0.012,0.0,0.002,0.0
25/05/2023,04:58:11,0.013,0.0,0.003,0.001
25/05/2023,04:59:11,0.013,0.0,0.003,0.0
25/05/2023,05:00:10,0.013,0.0,0.003,0.0
25/05/2023,05:01:11,0.014,0.0,0.003,0.0
25/05/2023,05:02:10,0.015,0.0,0.003,0.0
25/05/2023,05:03:11,0.015,0.0,0.004,0.001
25/05/2023,05:04:11,0.016,0.0,0.004,0.0
25/05/2023,05:05:10,0.016,0.0,0.004,0.0
25/05/2023,05:06:11,0.017,0.0,0.005,0.001
25/05/2023,05:07:11,0.018,0.0,0.005,0.0
25/05/2023,05:08:10,0.019,0.0,0.005,0.0
25/05/2023,05:09:10,0.019,0.0,0.005,0.0
25/05/2023,05:10:11,0.019,0.0,0.006,0.001
25/05/2023,05:11:11,0.020,0.0,0.006,0.0
25/05/2023,05:12:10,0.019,0.0,0.006,0.0
25/05/2023,05:13:10,0.019,0.0,0.007,0.001
25/05/2023,05:14:10,0.021,0.0,0.007,0.0
25/05/2023,05:15:11,0.020,0.0,0.007,0.0
25/05/2023,05:16:10,0.021,0.0,0.008,0.001
25/05/2023,05:17:10,0.022,0.0,0.008,0.0
25/05/2023,05:18:10,0.023,0.0,0.009,0.001
25/05/2023,05:19:11,0.023,0.0,0.009,0.0
25/05/2023,05:20:11,0.025,0.0,0.009,0.0
25/05/2023,05:21:11,0.025,0.0,0.01,0.001
25/05/2023,05:22:10,0.026,0.0,0.01,0.0
25/05/2023,05:23:11,0.027,0.0,0.011,0.001
25/05/2023,05:24:11,0.029,0.0,0.011,0.0
25/05/2023,05:25:11,0.030,0.0,0.012,0.001
25/05/2023,05:26:10,0.032,0.0,0.012,0.0
25/05/2023,05:27:10,0.033,0.0,0.013,0.001
25/05/2023,05:28:11,0.033,0.0,0.013,0.0
25/05/2023,05:29:11,0.035,0.0,0.014,0.001
25/05/2023,05:30:11,0.035,0.0,0.014,0.0
25/05/2023,05:31:10,0.036,0.0,0.015,0.001
25/05/2023,05:32:11,0.036,0.0,0.016,0.001
25/05/2023,05:33:11,0.037,0.0,0.016,0.0
25/05/2023,05:34:11,0.037,0.0,0.017,0.001
25/05/2023,05:35:10,0.038,0.0,0.017,0.0
25/05/2023,05:36:11,0.038,0.0,0.018,0.001
25/05/2023,05:37:10,0.039,0.0,0.019,0.001
25/05/2023,05:38:11,0.039,0.0,0.019,0.0
25/05/2023,05:39:11,0.040,0.0,0.02,0.001
25/05/2023,05:40:11,0.041,0.0,0.021,0.001
25/05/2023,05:41:11,0.042,0.0,0.021,0.0
25/05/2023,05:42:10,0.044,0.0,0.022,0.001
25/05/2023,05:43:11,0.045,0.0,0.023,0.001
25/05/2023,05:44:11,0.046,0.0,0.024,0.001
25/05/2023,05:45:11,0.047,0.0,0.024,0.0
25/05/2023,05:46:10,0.048,0.0,0.025,0.001
25/05/2023,05:47:11,0.048,0.0,0.026,0.001
25/05/2023,05:48:11,0.050,0.0,0.027,0.001
25/05/2023,05:49:11,0.051,0.0,0.028,0.001
25/05/2023,05:50:10,0.052,0.0,0.028,0.0
25/05/2023,05:51:10,0.053,0.0,0.029,0.001
25/05/2023,05:52:11,0.054,0.0,0.03,0.001
25/05/2023,05:53:11,0.055,0.0,0.031,0.001
25/05/2023,05:54:11,0.055,0.0,0.032,0.001
25/05/2023,05:55:10,0.057,0.0,0.033,0.001
25/05/2023,05:56:11,0.058,0.0,0.034,0.001
25/05/2023,05:57:11,0.060,0.0,0.035,0.001
25/05/2023,05:58:10,0.061,0.0,0.036,0.001
25/05/2023,05:59:11,0.062,0.0,0.037,0.001
25/05/2023,06:00:11,0.064,0.0,0.038,0.001
25/05/2023,06:01:10,0.066,0.0,0.039,0.001
25/05/2023,06:02:11,0.067,0.0,0.04,0.001
25/05/2023,06:03:11,0.070,0.0,0.041,0.001
25/05/2023,06:04:11,0.071,0.0,0.043,0.002
25/05/2023,06:05:11,0.074,0.0,0.044,0.001
25/05/2023,06:06:10,0.074,0.0,0.045,0.001
25/05/2023,06:07:11,0.074,0.0,0.046,0.001
25/05/2023,06:08:11,0.075,0.0,0.047,0.001
25/05/2023,06:09:10,0.076,0.0,0.049,0.002
25/05/2023,06:10:11,0.078,0.0,0.05,0.001
25/05/2023,06:11:11,0.080,0.0,0.051,0.001
25/05/2023,06:12:10,0.083,0.0,0.053,0.002
25/05/2023,06:13:10,0.086,0.0,0.054,0.001
25/05/2023,06:14:11,0.088,0.0,0.056,0.002
25/05/2023,06:15:11,0.090,0.0,0.057,0.001
25/05/2023,06:16:11,0.092,0.0,0.059,0.002
25/05/2023,06:17:11,0.095,0.0,0.06,0.001
25/05/2023,06:18:11,0.095,0.0,0.062,0.002
25/05/2023,06:19:10,0.096,0.0,0.063,0.001
25/05/2023,06:20:11,0.098,0.0,0.065,0.002
25/05/2023,06:21:10,0.099,0.0,0.066,0.001
25/05/2023,06:22:11,0.103,0.0,0.068,0.002
25/05/2023,06:23:11,0.105,0.0,0.07,0.002
25/05/2023,06:24:10,0.110,0.0,0.072,0.002
25/05/2023,06:25:10,0.113,0.0,0.074,0.002
25/05/2023,06:26:11,0.119,0.0,0.075,0.001
25/05/2023,06:27:11,0.125,0.0,0.077,0.002
25/05/2023,06:28:11,0.131,0.0,0.08,0.003
25/05/2023,06:29:11,0.139,0.0,0.082,0.002
25/05/2023,06:30:11,0.151,0.0,0.084,0.002
25/05/2023,06:31:10,0.163,0.0,0.087,0.003
25/05/2023,06:32:11,0.188,0.0,0.09,0.003
25/05/2023,06:33:10,0.191,0.0,0.093,0.003
25/05/2023,06:34:11,0.202,0.0,0.096,0.003
25/05/2023,06:35:11,0.210,0.0,0.1,0.004
25/05/2023,06:36:11,0.230,1.0,0.103,0.003
25/05/2023,06:37:11,0.227,1.0,0.107,0.004
25/05/2023,06:38:11,0.251,1.0,0.111,0.004
25/05/2023,06:39:11,0.255,1.0,0.115,0.004
25/05/2023,06:40:11,0.240,1.0,0.119,0.004
25/05/2023,06:41:11,0.238,1.0,0.123,0.004
25/05/2023,06:42:11,0.244,1.0,0.127,0.004
25/05/2023,06:43:10,0.261,1.0,0.131,0.004
25/05/2023,06:44:11,0.246,1.0,0.136,0.005
25/05/2023,06:45:11,0.279,1.0,0.14,0.004
25/05/2023,06:46:11,0.288,1.0,0.145,0.005
25/05/2023,06:47:11,0.298,1.0,0.149,0.004
25/05/2023,06:48:10,0.300,1.0,0.154,0.005
25/05/2023,06:49:10,0.306,1.0,0.16,0.006
25/05/2023,06:50:10,0.310,1.0,0.165,0.005
25/05/2023,06:51:11,0.312,1.0,0.17,0.005
25/05/2023,06:52:11,0.318,1.0,0.175,0.005
25/05/2023,06:53:11,0.324,1.0,0.18,0.005
25/05/2023,06:54:11,0.329,1.0,0.186,0.006
25/05/2023,06:55:11,0.333,1.0,0.191,0.005
25/05/2023,06:56:11,0.339,1.0,0.197,0.006
25/05/2023,06:57:10,0.341,1.0,0.203,0.006
25/05/2023,06:58:10,0.350,1.0,0.208,0.005
25/05/2023,06:59:11,0.361,1.0,0.214,0.006
25/05/2023,07:00:11,0.367,1.0,0.22,0.006
25/05/2023,07:01:11,0.374,1.0,0.227,0.007
25/05/2023,07:02:11,0.379,1.0,0.233,0.006
25/05/2023,07:03:10,0.381,1.0,0.239,0.006
25/05/2023,07:04:10,0.383,1.0,0.246,0.007
25/05/2023,07:05:10,0.389,1.0,0.252,0.006
25/05/2023,07:06:11,0.391,1.0,0.258,0.006
25/05/2023,07:07:11,0.396,1.0,0.265,0.007
25/05/2023,07:08:11,0.403,1.0,0.272,0.007
25/05/2023,07:09:10,0.408,1.0,0.278,0.006
25/05/2023,07:10:11,0.413,1.0,0.285,0.007
25/05/2023,07:11:10,0.418,1.0,0.292,0.007
25/05/2023,07:12:11,0.424,1.0,0.299,0.007
25/05/2023,07:13:10,0.431,1.0,0.306,0.007
25/05/2023,07:14:10,0.435,1.0,0.314,0.008
25/05/2023,07:15:10,0.442,1.0,0.321,0.007
25/05/2023,07:16:10,0.448,1.0,0.328,0.007
25/05/2023,07:17:11,0.454,1.0,0.336,0.008
25/05/2023,07:18:11,0.460,1.0,0.343,0.007
25/05/2023,07:19:11,0.466,1.0,0.351,0.008
25/05/2023,07:20:11,0.472,1.0,0.359,0.008
25/05/2023,07:21:11,0.479,1.0,0.367,0.008
25/05/2023,07:22:11,0.486,1.0,0.375,0.008
25/05/2023,07:23:11,0.491,1.0,0.383,0.008
25/05/2023,07:24:11,0.498,1.0,0.391,0.008
25/05/2023,07:25:11,0.505,1.0,0.4,0.009
25/05/2023,07:26:11,0.511,1.0,0.408,0.008
25/05/2023,07:27:11,0.518,1.0,0.417,0.009
25/05/2023,07:28:11,0.525,1.0,0.425,0.008
25/05/2023,07:29:10,0.530,1.0,0.434,0.009
25/05/2023,07:30:11,0.539,1.0,0.443,0.009
25/05/2023,07:31:11,0.545,1.0,0.452,0.009
25/05/2023,07:32:11,0.554,1.0,0.461,0.009
25/05/2023,07:33:11,0.560,1.0,0.471,0.01
25/05/2023,07:34:10,0.566,1.0,0.48,0.009
25/05/2023,07:35:10,0.572,1.0,0.489,0.009
25/05/2023,07:36:10,0.580,1.0,0.499,0.01
25/05/2023,07:37:11,0.587,1.0,0.509,0.01
25/05/2023,07:38:10,0.594,1.0,0.519,0.01
25/05/2023,07:39:11,0.602,1.0,0.529,0.01
25/05/2023,07:40:10,0.608,1.0,0.539,0.01
25/05/2023,07:41:11,0.615,1.0,0.549,0.01
25/05/2023,07:42:10,0.624,1.0,0.559,0.01
25/05/2023,07:43:11,0.630,1.0,0.57,0.011
25/05/2023,07:44:11,0.639,1.0,0.58,0.01
25/05/2023,07:45:10,0.646,1.0,0.591,0.011
25/05/2023,07:46:11,0.654,2.0,0.602,0.011
25/05/2023,07:47:11,0.656,2.0,0.613,0.011
25/05/2023,07:48:11,0.666,2.0,0.624,0.011
25/05/2023,07:49:11,0.678,2.0,0.635,0.011
25/05/2023,07:50:11,0.685,2.0,0.647,0.012
25/05/2023,07:51:11,0.693,2.0,0.658,0.011
25/05/2023,07:52:10,0.699,2.0,0.669,0.011
25/05/2023,07:53:11,0.711,2.0,0.681,0.012
25/05/2023,07:54:11,0.718,2.0,0.693,0.012
25/05/2023,07:55:11,0.725,2.0,0.705,0.012
25/05/2023,07:56:10,0.735,2.0,0.717,0.012
25/05/2023,07:57:34,0.744,2.0,0.735,0.018
25/05/2023,07:59:11,0.761,2.0,0.755,0.02
25/05/2023,08:00:11,0.770,2.0,0.768,0.013
25/05/2023,08:01:11,0.773,2.0,0.781,0.013
25/05/2023,08:02:11,0.784,2.0,0.794,0.013
25/05/2023,08:03:11,0.792,2.0,0.807,0.013
25/05/2023,08:04:11,0.803,2.0,0.82,0.013
25/05/2023,08:05:11,0.810,2.0,0.833,0.013
25/05/2023,08:06:11,0.817,2.0,0.847,0.014
25/05/2023,08:07:11,0.825,2.0,0.86,0.013
25/05/2023,08:08:10,0.832,2.0,0.874,0.014
25/05/2023,08:09:11,0.841,2.0,0.889,0.015
25/05/2023,08:10:11,0.847,2.0,0.903,0.014
25/05/2023,08:11:11,0.850,2.0,0.916,0.013
25/05/2023,08:12:10,0.863,2.0,0.931,0.015
25/05/2023,08:13:11,0.868,2.0,0.945,0.014
25/05/2023,08:14:11,0.878,2.0,0.96,0.015
25/05/2023,08:15:11,0.886,2.0,0.974,0.014
25/05/2023,08:16:12,0.893,2.0,0.99,0.016
25/05/2023,08:17:11,0.903,2.0,1.005,0.015
25/05/2023,08:18:11,0.912,2.0,1.019,0.014
25/05/2023,08:19:11,0.920,2.0,1.034,0.015
25/05/2023,08:20:11,0.930,2.0,1.05,0.016
25/05/2023,08:21:11,0.941,2.0,1.066,0.016
25/05/2023,08:22:11,0.954,2.0,1.082,0.016
25/05/2023,08:23:10,0.957,2.0,1.097,0.015
25/05/2023,08:24:11,0.971,2.0,1.113,0.016
25/05/2023,08:25:11,0.974,2.0,1.129,0.016
25/05/2023,08:26:11,0.974,2.0,1.146,0.017
25/05/2023,08:27:10,0.988,2.0,1.161,0.015
25/05/2023,08:28:11,1.000,2.0,1.177,0.016
25/05/2023,08:29:11,1.009,2.0,1.195,0.018
25/05/2023,08:30:11,1.021,2.0,1.211,0.016
25/05/2023,08:31:11,1.031,2.0,1.229,0.018
25/05/2023,08:32:10,0.949,2.0,1.245,0.016
25/05/2023,08:33:11,1.031,2.0,1.26,0.015
25/05/2023,08:34:10,1.052,2.0,1.278,0.018
25/05/2023,08:35:11,0.978,2.0,1.295,0.017
25/05/2023,08:36:11,1.074,2.0,1.313,0.018
25/05/2023,08:37:11,1.094,3.0,1.331,0.018
25/05/2023,08:38:11,1.116,3.0,1.349,0.018
25/05/2023,08:39:11,1.116,3.0,1.368,0.019
25/05/2023,08:40:11,1.126,3.0,1.387,0.019
25/05/2023,08:41:11,1.130,3.0,1.406,0.019
25/05/2023,08:42:11,1.146,3.0,1.425,0.019
25/05/2023,08:43:11,1.145,3.0,1.444,0.019
25/05/2023,08:44:11,1.147,3.0,1.463,0.019
25/05/2023,08:45:11,1.149,3.0,1.482,0.019
25/05/2023,08:46:11,1.171,3.0,1.501,0.019
25/05/2023,08:47:11,0.858,2.0,1.519,0.018
25/05/2023,08:48:11,0.816,2.0,1.533,0.014
25/05/2023,08:49:11,1.163,3.0,1.548,0.015
25/05/2023,08:50:11,1.199,3.0,1.568,0.02
25/05/2023,08:51:11,1.213,3.0,1.588,0.02
25/05/2023,08:52:11,1.220,3.0,1.609,0.021
25/05/2023,08:53:10,1.231,3.0,1.628,0.019
25/05/2023,08:54:11,1.234,3.0,1.649,0.021
25/05/2023,08:55:12,1.245,3.0,1.67,0.021
25/05/2023,08:56:12,1.250,3.0,1.691,0.021
25/05/2023,08:57:11,1.268,3.0,1.711,0.02
25/05/2023,08:58:11,1.279,3.0,1.733,0.022
25/05/2023,08:59:11,1.271,3.0,1.754,0.021
25/05/2023,09:00:11,1.156,3.0,1.774,0.02
25/05/2023,09:01:11,1.289,3.0,1.794,0.02
25/05/2023,09:02:10,1.294,3.0,1.815,0.021
25/05/2023,09:03:11,1.314,3.0,1.837,0.022
25/05/2023,09:04:11,1.326,3.0,1.859,0.022
25/05/2023,09:05:11,1.335,3.0,1.881,0.022
25/05/2023,09:06:11,1.338,3.0,1.904,0.023
25/05/2023,09:07:11,1.346,3.0,1.927,0.023
25/05/2023,09:08:11,1.363,3.0,1.949,0.022
25/05/2023,09:09:11,1.367,3.0,1.971,0.022
25/05/2023,09:10:11,1.373,3.0,1.994,0.023
25/05/2023,09:11:11,1.386,3.0,2.017,0.023
25/05/2023,09:12:11,1.394,3.0,2.04,0.023
25/05/2023,09:13:11,1.400,3.0,2.064,0.024
25/05/2023,09:14:11,1.411,3.0,2.087,0.023
25/05/2023,09:15:11,1.417,3.0,2.11,0.023
25/05/2023,09:16:11,1.427,3.0,2.134,0.024
25/05/2023,09:17:11,1.432,3.0,2.158,0.024
25/05/2023,09:18:12,1.435,3.0,2.183,0.025
25/05/2023,09:19:11,1.451,3.0,2.207,0.024
25/05/2023,09:20:11,1.464,3.0,2.23,0.023
25/05/2023,09:21:10,1.472,3.0,2.255,0.025
25/05/2023,09:22:11,1.469,3.0,2.279,0.024
25/05/2023,09:23:11,1.483,3.0,2.304,0.025
25/05/2023,09:24:11,1.489,3.0,2.329,0.025
25/05/2023,09:25:11,1.499,3.0,2.354,0.025
25/05/2023,09:26:11,1.522,3.0,2.38,0.026
25/05/2023,09:27:10,1.539,4.0,2.404,0.024
25/05/2023,09:28:11,1.526,4.0,2.431,0.027
25/05/2023,09:29:11,1.537,4.0,2.455,0.024
25/05/2023,09:30:11,1.551,4.0,2.48,0.025
25/05/2023,09:31:11,1.482,3.0,2.505,0.025
25/05/2023,09:32:11,1.286,3.0,2.529,0.024
25/05/2023,09:33:11,1.563,4.0,2.551,0.022
25/05/2023,09:34:11,1.576,4.0,2.576,0.025
25/05/2023,09:35:11,1.566,4.0,2.602,0.026
25/05/2023,09:36:11,1.593,4.0,2.625,0.023
25/05/2023,09:37:11,1.572,4.0,2.651,0.026
25/05/2023,09:38:10,1.509,3.0,2.675,0.024
25/05/2023,09:39:11,1.527,4.0,2.701,0.026
25/05/2023,09:40:11,1.650,4.0,2.728,0.027
25/05/2023,09:41:11,1.651,4.0,2.756,0.028
25/05/2023,09:42:11,1.649,4.0,2.784,0.028
25/05/2023,09:43:11,1.640,4.0,2.811,0.027
25/05/2023,09:44:11,1.672,4.0,2.838,0.027
25/05/2023,09:45:11,1.671,4.0,2.867,0.029
25/05/2023,09:46:11,1.683,4.0,2.894,0.027
25/05/2023,09:47:11,1.688,4.0,2.921,0.027
25/05/2023,09:48:11,1.708,4.0,2.95,0.029
25/05/2023,09:49:11,1.707,4.0,2.979,0.029
25/05/2023,09:50:11,1.725,4.0,3.006,0.027
25/05/2023,09:51:11,1.735,4.0,3.036,0.03
25/05/2023,09:52:11,1.740,4.0,3.064,0.028
25/05/2023,09:53:11,1.744,4.0,3.093,0.029
25/05/2023,09:54:11,1.728,4.0,3.122,0.029
25/05/2023,09:55:11,1.747,4.0,3.152,0.03
25/05/2023,09:56:10,1.756,4.0,3.18,0.028
25/05/2023,09:57:10,1.747,4.0,3.209,0.029
25/05/2023,09:58:11,1.763,4.0,3.24,0.031
25/05/2023,09:59:11,1.804,4.0,3.269,0.029
25/05/2023,10:00:11,1.813,4.0,3.298,0.029
25/05/2023,10:01:11,1.802,4.0,3.329,0.031
25/05/2023,10:02:11,1.800,4.0,3.359,0.03